This is the latest recevied weather packets stored in our database for station/object JO1YDG-13. If no packets are shown the sender has not sent any weather packets the latest 10 day(s).
| Time | Temp. | Humidity | Pressure | Rain* | Wind** | Luminosity | Snow |
|---|---|---|---|---|---|---|---|
| 1777875975 | 29.44° C | 21% | 968 hPa | 0 mm | - | - | - |
| 1777875677 | 29.44° C | 21% | 968 hPa | 0 mm | - | - | - |
| 1777875377 | 28.89° C | 20% | 968 hPa | 0 mm | - | - | - |
| 1777875076 | 29.44° C | 19% | 967.7 hPa | 0 mm | - | - | - |
| 1777874776 | 28.89° C | 20% | 967.7 hPa | 0 mm | - | - | - |
| 1777874476 | 28.89° C | 19% | 967.7 hPa | 0 mm | - | - | - |
| 1777874176 | 29.44° C | 19% | 967.7 hPa | 0 mm | - | - | - |
| 1777873876 | 28.89° C | 21% | 967.7 hPa | 0 mm | - | - | - |
| 1777873576 | 29.44° C | 19% | 967.9 hPa | 0 mm | - | - | - |
| 1777873276 | 28.89° C | 19% | 967.9 hPa | 0 mm | - | - | - |
| 1777872976 | 29.44° C | 20% | 967.7 hPa | 0 mm | - | - | - |
| 1777872675 | 30° C | 18% | 967.7 hPa | 0 mm | - | - | - |
| 1777872376 | 30.56° C | 23% | 967.4 hPa | 0 mm | - | - | - |
| 1777872076 | 30° C | 20% | 967.4 hPa | 0 mm | - | - | - |
| 1777871776 | 30° C | 21% | 967.4 hPa | 0 mm | - | - | - |
| 1777871476 | 29.44° C | 23% | 967.3 hPa | 0 mm | - | - | - |
| 1777871175 | 29.44° C | 22% | 967.3 hPa | 0 mm | - | - | - |
| 1777870875 | 30° C | 21% | 967.5 hPa | 0 mm | - | - | - |
| 1777870577 | 29.44° C | 22% | 967.5 hPa | 0 mm | - | - | - |
| 1777870277 | 30.56° C | 21% | 967.5 hPa | 0 mm | - | - | - |
| 1777869977 | 30° C | 21% | 967.3 hPa | 0 mm | - | - | - |
| 1777869677 | 29.44° C | 21% | 967.3 hPa | 0 mm | - | - | - |
| 1777869376 | 30° C | 22% | 967.3 hPa | 0 mm | - | - | - |
| 1777869076 | 30° C | 22% | 967.3 hPa | 0 mm | - | - | - |
| 1777868776 | 30° C | 23% | 967.4 hPa | 0 mm | - | - | - |
* Rain latest hour (hover to see other rain measurements)
** Current wind speed in m/s (hover to see current wind gust speed)